Location: Larrial
(48.2758°N, 4.5331°W)
Time: 11:21:46
(UTC+00:00)

AAUSAT CUBESAT 2 - Pass Details

Date: 03 December 2021
Orbit: 571 x 586 km, 97.5° (Epoch: 20 January)

Event Time Altitude Azimuth Distance (km) Brightness Sun altitude
Rises 17:52:27 0° 215° (SW) 2,770 ? -13.9°
Reaches altitude 10° 17:55:42 10° 243° (WSW) 1,878 ? -14.4°
Maximum altitude 17:57:36 13° 272° (W) 1,694 ? -14.7°
Drops below altitude 10° 17:59:31 10° 300° (WNW) 1,885 ? -15.0°
Sets 18:02:48 0° 329° (NNW) 2,790 ? -15.5°
